Regional Weather Roundup
Issued by NWS

Home | Current Version | Previous Version | Graphics & Text | Print | Product List | Glossary On
Versions: 1 2 3 4 5 6 7 8 9 10 11 12 13 14 15 16 17 18 19 20 21 22 23 24 25 26 27 28 29 30 31 32 33 34 35 36 37 38 39 40 41 42 43 44 45 46 47 48 49 50
000
ASUS45 KPSR 300500
RWRAZ

PRELIMINARY ARIZONA REGIONAL HOURLY WEATHER ROUNDUP
NATIONAL WEATHER SERVICE PHOENIX AZ
1000 PM MST MON SEP 29 2014

NOTE: FAIR INDICATES FEW OR NO CLOUDS BELOW 12,000 FEET WITH NO
SIGNIFICANT WEATHER AND/OR OBSTRUCTIONS TO VISIBILITY.

AZZ001>003-036-300600-
NORTHWEST ARIZONA

CITY           SKY/WX    TMP DP  RH WIND       PRES   REMARKS
KINGMAN        NOT AVBL
$$

AZZ004>008-015-016-018-300600-
NORTH CENTRAL ARIZONA

CITY           SKY/WX    TMP DP  RH WIND       PRES   REMARKS
GRAND CANYON   CLEAR     40  37  89 NE3       30.14R
PRESCOTT       CLEAR     54  37  52 S8        30.07R
FLAGSTAFF      CLEAR     41  33  73 CALM      30.15S
PAYSON         CLEAR     55  41  58 CALM      30.08S
$$

AZZ009>014-017-300600-
NORTHEAST ARIZONA

CITY           SKY/WX    TMP DP  RH WIND       PRES   REMARKS
WINSLOW        NOT AVBL
SAINT JOHNS    CLEAR     55  36  48 SW6       30.07S
$$

AZZ023-300600-
GREATER PHOENIX AREA

CITY           SKY/WX    TMP DP  RH WIND       PRES   REMARKS
PHOENIX        CLEAR     76  48  37 CALM      29.84R
DEER VALLEY    CLEAR     72  50  45 N7        29.86R
SCOTTSDALE     CLEAR     76  44  32 N3        29.88R
MESA-GATEWAY   CLEAR     72  54  53 CALM      29.88R
$$

AZZ027-028-300600-
SOUTHWEST MARICOPA COUNTY AND PINAL COUNTY

CITY           SKY/WX    TMP DP  RH WIND       PRES   REMARKS
CASA GRANDE    CLEAR     72  45  37 CALM      29.87R
GILA BEND      CLEAR     72  55  56 VRB3      29.81R
$$

AZZ503-504-507>509-300600-
SOUTHEAST ARIZONA

CITY           SKY/WX    TMP DP  RH WIND       PRES   REMARKS
TUCSON         CLEAR     73  35  25 SW3       29.94R
DAVIS-MONTHAN  CLEAR     69  38  32 S6        29.93R
NOGALES        CLEAR     63  55  75 E6        30.00S
SIERRA VISTA   CLEAR     64  55  72 SW9       30.05S
SAFFORD        CLEAR     69  28  21 NW8       29.92R
$$

AZZ020-021-025-026-031-300600-
SOUTHWEST ARIZONA

CITY           SKY/WX    TMP DP  RH WIND       PRES   REMARKS
YUMA           CLEAR     79  42  26 W5        29.82R
$$

CAZ031-033-041-043-047-048-061-300600-
SOUTHERN CALIFORNIA

CITY           SKY/WX    TMP DP  RH WIND       PRES   REMARKS
DOWNTOWN L.A.  CLEAR     68  60  75 CALM      29.86S
L.A. AIRPORT   CLEAR     68  63  84 W5        29.87S
SAN DIEGO      PTCLDY    69  60  73 N6        29.90R
BURBANK        CLEAR     71  49  45 W6        29.88R
ONTARIO        CLEAR     70  55  59 SW5       29.89R
RIVERSIDE      CLEAR     69  55  60 CALM      29.89R
PALM SPRINGS   CLEAR     79  46  31 CALM      29.86R
EL CENTRO NAS  CLEAR     74  41  30 CALM      29.80S
IMPERIAL       CLEAR     74  47  38 SW3       29.80R
BLYTHE         CLEAR     76  48  37 NW3       29.82S
$$

NVZ020-UTZ003-300600-
SOUTHERN NEVADA-UTAH

CITY           SKY/WX    TMP DP  RH WIND       PRES   REMARKS
LAS VEGAS      NOT AVBL
SALT LAKE CITY LGT RAIN  53  47  79 VRB6      30.02R
$$

NMZ009-TXZ055-300600-
NEW MEXICO-WEST TEXAS

CITY           SKY/WX    TMP DP  RH WIND       PRES   REMARKS
ALBUQUERQUE    PTCLDY    63  32  31 N10       30.05R
EL PASO        PTCLDY    77  57  50 S7        29.93R
$$


........................KEY........................
SKY/WX - SKY CONDITION/WEATHER
TMP    - TEMPERATURE IN FAHRENHEIT
DP     - DEW POINT IN FAHRENHEIT
RH     - RELATIVE HUMIDITY IN PERCENT
WIND   - DIRECTION AND SPEED IN MILES PER HOUR (MPH)
VRB    - VARIABLE WIND DIRECTION
PRES   - MEAN SEA LEVEL PRESSURE IN INCHES OF MERCURY
         F - FALLING PRESSURE   R - RISING PRESSURE
         S - STEADY PRESSURE
VSB    - VISIBILITY IN MILES
HX     - HEAT INDEX IN FAHRENHEIT
WCI    - WIND CHILL INDEX IN FAHRENHEIT
TC     - TEMPERATURE IN CELSIUS WHICH IS ALSO KNOWN AS
         TEMPERATURE IN CENTIGRADE
AFB    - AIR FORCE BASE
         LUKE AFB IS LUKE AIR FORCE BASE
         DAVIS-MONTHAN IS DAVIS-MONTHAN AIR FORCE BASE
NAS    - NAVAL AIR STATION
         EL CENTRO NAS IS EL CENTRO NAVAL AIR STATION
N/A    - NOT AVAILABLE


USA.gov is the U.S. government's official web portal to all federal, state and local government web resources and services.